GW0672 Weather Reports


time (UTC)temp
C
wind
direction
speed
KPH
gust
KPH
rain 1hr
cm
rain 24hr
cm
rain mn
cm
humidity
%
barometer
mb
20260502170312 6 296 9.7 11.3 0.00 0.00 0.00 51 1019.4
20260502164300 6 287 9.7 14.5 0.00 0.00 0.00 52 1019.6
20260502163756 6 306 8.0 11.3 0.00 0.00 0.00 52 1020.0
20260502163252 6 287 11.3 14.5 0.00 0.00 0.00 50 1019.9
20260502162750 7 285 11.3 19.3 0.00 0.00 0.00 49 1019.9
20260502162246 7 282 8.0 11.3 0.00 0.00 0.00 52 1019.8
20260502161743 6 296 8.0 9.7 0.00 0.00 0.00 51 1019.6
20260502161239 6 298 4.8 8.0 0.00 0.00 0.00 55 1019.9
20260502160737 6 283 11.3 16.1 0.00 0.00 0.00 51 1019.9
20260502160236 6 262 17.7 20.9 0.00 0.00 0.00 49 1019.9
20260502152200 6 296 8.0 14.5 0.00 0.00 0.00 51 1019.8
20260502151658 7 341 8.0 11.3 0.00 0.00 0.00 49 1020.1
20260502151155 6 298 4.8 8.0 0.00 0.00 0.00 56 1020.2
20260502150652 5 288 11.3 16.1 0.00 0.00 0.00 53 1020.2
20260502150148 5 292 4.8 8.0 0.00 0.00 0.00 53 1020.2
20260502140112 5 356 12.9 19.3 0.00 0.00 0.00 56 1020.3
20260502130537 3 297 3.2 4.8 0.00 0.00 0.00 71 1020.5
20260502123520 3 330 4.8 4.8 0.00 0.00 0.00 75 1020.3
20260502123017 2 288 8.0 8.0 0.00 0.00 0.00 76 1020.2
20260502122513 2 282 9.7 14.5 0.00 0.00 0.00 76 1020.1
20260502122011 2 301 8.0 9.7 0.00 0.00 0.00 77 1020.5
20260502121508 2 289 6.4 9.7 0.00 0.00 0.00 78 1020.4
20260502121006 2 303 6.4 8.0 0.00 0.00 0.00 78 1020.1
20260502120502 2 303 6.4 8.0 0.00 0.00 0.00 78 1020.3
20260502115456 2 305 6.4 9.7 0.00 0.00 0.00 79 1020.2
20260502114952 2 316 4.8 8.0 0.00 0.00 0.00 80 1020.1
20260502114449 2 296 3.2 4.8 0.00 0.00 0.00 81 1020.2
20260502113946 2 271 9.7 11.3 0.00 0.00 0.00 80 1020.1
20260502113444 2 301 8.0 9.7 0.00 0.00 0.00 81 1020.1
20260502112942 2 276 8.0 9.7 0.00 0.00 0.00 81 1019.8
20260502112439 2 311 1.6 3.2 0.00 0.00 0.00 82 1019.9
20260502111937 1 288 0.0 0.0 0.00 0.00 0.00 82 1019.9
20260502111433 1 288 1.6 3.2 0.00 0.00 0.00 84 1019.6
20260502110931 1 289 3.2 4.8 0.00 0.00 0.00 87 1019.8
20260502110429 0 291 1.6 3.2 0.00 0.00 0.00 90 1020.2
20260502105926 0 289 0.0 0.0 0.00 0.00 0.00 92 1019.9
20260502105423 0 288 0.0 0.0 0.00 0.00 0.00 93 1019.9
20260502104921 0 290 0.0 0.0 0.00 0.00 0.00 94 1019.8
20260502104418 0 288 0.0 0.0 0.00 0.00 0.00 95 1020.0
20260502103915 0 288 0.0 0.0 0.00 0.00 0.00 95 1019.8
20260502103413 0 288 0.0 0.0 0.00 0.00 0.00 95 1019.8
20260502102909 0 285 0.0 0.0 0.00 0.00 0.00 95 1019.6
20260502102406 0 288 0.0 0.0 0.00 0.00 0.00 96 1019.4
20260502101903 0 288 0.0 0.0 0.00 0.00 0.00 96 1019.4
20260502101402 0 84 0.0 0.0 0.00 0.00 0.00 97 1019.4
20260502100859 0 84 0.0 0.0 0.00 0.00 0.00 97 1019.2
20260502100359 0 84 0.0 0.0 0.00 0.00 0.00 97 1019.2
20260502091332 0 84 0.0 0.0 0.00 0.00 0.00 96 1019.1
20260502090830 0 84 0.0 0.0 0.00 0.00 0.00 96 1019.0
20260502090326 0 84 0.0 0.0 0.00 0.00 0.00 96 1018.9
20260502071216 2 84 0.0 0.0 0.00 0.00 0.00 86 1018.9
20260502070715 2 84 0.0 0.0 0.00 0.00 0.00 86 1018.8
20260502070212 2 84 0.0 0.0 0.00 0.00 0.00 86 1018.9
20260502065710 2 84 0.0 0.0 0.00 0.00 0.00 86 1018.8
20260502065208 2 84 0.0 0.0 0.00 0.00 0.00 86 1018.9
20260502064706 2 84 0.0 0.0 0.00 0.00 0.00 87 1018.9
20260502064203 2 84 0.0 0.0 0.00 0.00 0.00 87 1019.0
20260502063701 2 84 0.0 0.0 0.00 0.00 0.00 86 1019.0
20260502063158 2 84 0.0 0.0 0.00 0.00 0.00 86 1019.0
20260502062650 2 84 0.0 0.0 0.00 0.00 0.00 86 1019.2
20260502062147 2 84 0.0 0.0 0.00 0.00 0.00 86 1019.1
20260502061645 2 84 0.0 0.0 0.00 0.00 0.00 85 1019.2
20260502061142 2 112 1.6 3.2 0.00 0.00 0.00 85 1019.0
20260502060637 2 103 1.6 3.2 0.00 0.00 0.00 86 1019.2
20260502060133 2 97 0.0 0.0 0.00 0.00 0.00 86 1019.1
20260502055631 2 95 0.0 3.2 0.00 0.00 0.00 86 1019.2
20260502055129 2 90 0.0 3.2 0.00 0.00 0.00 86 1019.2
20260502054628 2 127 3.2 4.8 0.00 0.00 0.00 86 1019.3
20260502054125 2 142 3.2 4.8 0.00 0.00 0.00 85 1019.4
20260502053622 2 129 0.0 0.0 0.00 0.00 0.00 85 1019.2
20260502053119 2 76 0.0 0.0 0.00 0.00 0.00 85 1019.2
20260502052618 2 74 1.6 3.2 0.00 0.00 0.00 86 1019.2
20260502052115 2 84 4.8 4.8 0.00 0.00 0.00 86 1019.3
20260502051614 2 77 3.2 4.8 0.00 0.00 0.00 86 1019.3
20260502051111 2 103 3.2 4.8 0.00 0.00 0.00 86 1019.2
20260502050607 2 78 3.2 4.8 0.00 0.00 0.00 86 1019.1
20260502050104 2 93 4.8 4.8 0.00 0.00 0.00 85 1019.0
20260502045600 3 79 1.6 3.2 0.00 0.00 0.00 85 1019.1
20260502045058 3 79 4.8 4.8 0.00 0.00 0.00 85 1019.0
20260502044554 3 82 6.4 8.0 0.00 0.00 0.00 85 1018.9
20260502044051 3 91 8.0 14.5 0.00 0.00 0.00 84 1018.9
20260502043549 3 144 4.8 8.0 0.00 0.00 0.00 83 1018.9
20260502043044 3 59 1.6 3.2 0.00 0.00 0.00 80 1018.9
20260502042539 4 43 6.4 8.0 0.00 0.00 0.00 74 1018.9
20260502042037 4 316 0.0 0.0 0.00 0.00 0.00 69 1018.8
20260502041535 5 316 3.2 3.2 0.00 0.00 0.00 66 1018.7
20260502041032 5 299 1.6 3.2 0.00 0.00 0.00 63 1018.4
20260502040528 5 300 3.2 4.8 0.00 0.00 0.00 61 1018.4
20260502040026 5 341 3.2 4.8 0.00 0.00 0.00 61 1018.6
20260502035521 5 295 1.6 3.2 0.00 0.00 0.00 59 1018.5
20260502035019 5 331 3.2 3.2 0.00 0.00 0.00 58 1018.6
20260502034517 5 294 3.2 4.8 0.00 0.00 0.00 57 1018.7
20260502034015 5 297 1.6 3.2 0.00 0.00 0.00 60 1018.5
20260502033513 5 294 3.2 4.8 0.00 0.00 0.00 60 1018.6
20260502033010 5 316 0.0 0.0 0.00 0.00 0.00 59 1018.5
20260502032505 5 358 4.8 4.8 0.00 0.00 0.00 58 1018.6
20260502032003 5 315 1.6 3.2 0.00 0.00 0.00 60 1018.6
20260502031501 5 330 4.8 4.8 0.00 0.00 0.00 60 1018.6
20260502030958 5 282 4.8 8.0 0.00 0.00 0.00 60 1018.5
20260502030456 5 294 0.0 3.2 0.00 0.00 0.00 62 1018.4
20260502025954 5 291 3.2 4.8 0.00 0.00 0.00 61 1018.3
20260502025451 5 16 1.6 3.2 0.00 0.00 0.00 62 1018.4
20260502024949 5 298 1.6 3.2 0.00 0.00 0.00 64 1018.5
20260502024447 5 301 0.0 0.0 0.00 0.00 0.00 63 1018.4
20260502023945 5 291 0.0 0.0 0.00 0.00 0.00 62 1018.1
20260502023442 5 331 1.6 3.2 0.00 0.00 0.00 63 1018.3
20260502022939 5 328 3.2 4.8 0.00 0.00 0.00 62 1018.4
20260502022435 5 301 0.0 0.0 0.00 0.00 0.00 62 1018.3
20260502021933 5 312 0.0 0.0 0.00 0.00 0.00 63 1018.2
20260502021430 5 352 0.0 3.2 0.00 0.00 0.00 62 1018.2
20260502020927 5 277 3.2 4.8 0.00 0.00 0.00 62 1018.2
20260502020425 5 359 4.8 8.0 0.00 0.00 0.00 62 1018.0
20260502015921 5 299 3.2 4.8 0.00 0.00 0.00 61 1018.2
20260502015419 5 314 4.8 4.8 0.00 0.00 0.00 62 1018.1
20260502014916 5 12 3.2 4.8 0.00 0.00 0.00 62 1018.2
20260502014413 5 315 6.4 9.7 0.00 0.00 0.00 62 1018.3
20260502013909 5 2 1.6 3.2 0.00 0.00 0.00 62 1018.3
20260502013404 5 346 3.2 4.8 0.00 0.00 0.00 63 1018.1
20260502012901 5 339 4.8 8.0 0.00 0.00 0.00 63 1017.9
20260502012359 5 290 6.4 9.7 0.00 0.00 0.00 64 1018.0
20260502011856 5 53 0.0 0.0 0.00 0.00 0.00 65 1018.0
20260502011352 5 350 6.4 9.7 0.00 0.00 0.00 63 1017.9
20260502010849 5 316 4.8 8.0 0.00 0.00 0.00 63 1017.8
20260502010346 6 46 1.6 3.2 0.00 0.00 0.00 63 1017.8
20260502005843 6 295 4.8 8.0 0.00 0.00 0.00 61 1017.7
20260502005341 6 334 3.2 4.8 0.00 0.00 0.00 60 1017.5
20260502004838 6 355 4.8 4.8 0.00 0.00 0.00 59 1017.4
20260502004333 6 328 3.2 4.8 0.00 0.00 0.00 58 1017.5
20260502003832 6 307 1.6 3.2 0.00 0.00 0.00 57 1017.3
20260502003328 6 292 3.2 4.8 0.00 0.00 0.00 55 1017.4
20260502002825 6 292 11.3 11.3 0.00 0.00 0.00 55 1017.2
20260502002322 6 277 9.7 14.5 0.00 0.00 0.00 56 1017.4
20260502001819 6 284 11.3 14.5 0.00 0.00 0.00 54 1017.3
20260502001317 6 285 6.4 8.0 0.00 0.00 0.00 58 1017.2
20260502000815 6 281 6.4 8.0 0.00 0.00 0.00 59 1017.3
20260502000313 6 267 4.8 8.0 0.00 0.00 0.00 59 1017.2
20260501235808 6 341 4.8 8.0 0.00 0.00 0.00 59 1017.1
20260501235305 6 298 1.6 3.2 0.00 0.00 0.00 61 1017.2
20260501234759 6 341 0.0 3.2 0.00 0.00 0.00 62 1017.2
20260501234257 6 285 3.2 4.8 0.00 0.00 0.00 62 1017.1
20260501233756 6 289 3.2 3.2 0.00 0.00 0.00 61 1017.2
20260501233253 6 288 3.2 4.8 0.00 0.00 0.00 63 1017.0
20260501232748 6 291 0.0 0.0 0.00 0.00 0.00 63 1017.1
20260501232245 6 290 1.6 3.2 0.00 0.00 0.00 63 1017.0
20260501231743 6 283 3.2 3.2 0.00 0.00 0.00 63 1017.0
20260501231241 7 284 4.8 8.0 0.00 0.00 0.00 63 1017.1
20260501230739 7 323 3.2 3.2 0.00 0.00 0.00 63 1017.2
20260501230237 7 315 3.2 4.8 0.00 0.00 0.00 62 1017.0
20260501225734 7 303 8.0 9.7 0.00 0.00 0.00 59 1016.9
20260501225232 7 308 6.4 8.0 0.00 0.00 0.00 58 1017.0
20260501224728 7 289 4.8 8.0 0.00 0.00 0.00 61 1016.9
20260501224226 7 273 4.8 8.0 0.00 0.00 0.00 62 1017.1
20260501223721 7 279 3.2 4.8 0.00 0.00 0.00 61 1016.9
20260501223218 7 304 3.2 4.8 0.00 0.00 0.00 62 1016.9
20260501222714 7 348 3.2 3.2 0.00 0.00 0.00 61 1016.9
20260501222211 7 288 4.8 8.0 0.00 0.00 0.00 62 1017.1
20260501221708 7 305 3.2 3.2 0.00 0.00 0.00 62 1016.9
20260501221205 7 4 6.4 8.0 0.00 0.00 0.00 62 1016.9
20260501220703 7 300 4.8 8.0 0.00 0.00 0.00 63 1017.1
20260501220200 7 286 8.0 9.7 0.00 0.00 0.00 62 1016.9
20260501215657 7 291 8.0 11.3 0.00 0.00 0.00 62 1016.8
20260501215152 7 289 3.2 4.8 0.00 0.00 0.00 61 1016.5
20260501214647 7 298 3.2 4.8 0.00 0.00 0.00 60 1016.7
20260501214143 7 286 11.3 14.5 0.00 0.00 0.00 59 1016.7
20260501213640 7 281 8.0 9.7 0.00 0.00 0.00 60 1016.6
20260501213136 7 286 8.0 11.3 0.00 0.00 0.00 59 1016.8
20260501212633 7 310 6.4 9.7 0.00 0.00 0.00 59 1016.7
20260501212129 7 293 14.5 16.1 0.00 0.00 0.00 58 1016.5
20260501211626 7 295 11.3 16.1 0.00 0.00 0.00 59 1016.5
20260501211124 7 280 6.4 8.0 0.00 0.00 0.00 58 1016.6
20260501210620 7 276 9.7 11.3 0.00 0.00 0.00 60 1016.4
20260501210117 7 309 4.8 8.0 0.00 0.00 0.00 60 1016.3
20260501205613 7 313 1.6 4.8 0.00 0.00 0.00 59 1016.4
20260501205111 7 307 4.8 8.0 0.00 0.00 0.00 60 1016.2
20260501204607 7 303 6.4 8.0 0.00 0.00 0.00 60 1016.3
20260501204103 7 329 1.6 4.8 0.00 0.00 0.00 61 1016.3
20260501203600 7 324 1.6 3.2 0.00 0.00 0.00 60 1016.3
20260501203058 7 324 6.4 8.0 0.00 0.00 0.00 59 1016.4
20260501202555 7 344 8.0 8.0 0.00 0.00 0.00 60 1016.3
20260501202051 7 291 4.8 4.8 0.00 0.00 0.00 59 1016.2
20260501201548 7 281 8.0 9.7 0.00 0.00 0.00 59 1016.4
20260501201045 7 311 8.0 11.3 0.00 0.00 0.00 58 1016.5
20260501200542 7 293 11.3 14.5 0.00 0.00 0.00 56 1016.3
20260501200039 7 290 4.8 8.0 0.00 0.00 0.00 57 1016.2
20260501195537 7 349 8.0 9.7 0.00 0.00 0.00 56 1016.2
20260501195032 8 5 8.0 9.7 0.00 0.00 0.00 56 1016.1
20260501194527 8 288 6.4 8.0 0.00 0.00 0.00 56 1016.1
20260501194024 8 21 4.8 8.0 0.00 0.00 0.00 57 1016.3
20260501193521 8 267 3.2 8.0 0.00 0.00 0.00 58 1016.1
20260501193020 8 272 0.0 3.2 0.00 0.00 0.00 59 1016.4
20260501192516 8 307 6.4 11.3 0.00 0.00 0.00 59 1016.3
20260501192014 7 301 0.0 0.0 0.00 0.00 0.00 60 1016.2
20260501191511 8 300 4.8 4.8 0.00 0.00 0.00 59 1016.1
20260501191008 8 278 6.4 14.5 0.00 0.00 0.00 59 1016.4
20260501190503 8 279 6.4 8.0 0.00 0.00 0.00 58 1016.0
20260501185959 7 288 6.4 8.0 0.00 0.00 0.00 59 1016.1
20260501185455 7 283 11.3 14.5 0.00 0.00 0.00 59 1016.2
20260501184951 7 268 4.8 4.8 0.00 0.00 0.00 60 1016.0
20260501184448 7 286 8.0 11.3 0.00 0.00 0.00 59 1016.1
20260501183942 7 356 3.2 4.8 0.00 0.00 0.00 60 1016.0
20260501183440 7 298 3.2 4.8 0.00 0.00 0.00 59 1016.2
20260501182936 8 359 6.4 9.7 0.00 0.00 0.00 59 1016.1
20260501182433 7 335 8.0 9.7 0.00 0.00 0.00 59 1016.0
20260501181930 7 19 6.4 9.7 0.00 0.00 0.00 61 1016.0
20260501181427 7 339 3.2 4.8 0.00 0.00 0.00 62 1016.2
20260501180924 7 309 4.8 4.8 0.00 0.00 0.00 61 1016.0
20260501180421 7 22 4.8 8.0 0.00 0.00 0.00 61 1015.9
20260501175917 7 3 3.2 4.8 0.00 0.00 0.00 59 1016.0
20260501175415 7 307 4.8 8.0 0.00 0.00 0.00 59 1016.0
20260501174911 7 357 6.4 9.7 0.00 0.00 0.00 60 1015.9
20260501174409 8 351 1.6 3.2 0.00 0.00 0.00 61 1016.0
20260501173906 8 297 4.8 8.0 0.00 0.00 0.00 59 1015.8
20260501173404 7 296 8.0 11.3 0.00 0.00 0.00 60 1016.0
20260501172859 7 283 6.4 9.7 0.00 0.00 0.00 61 1015.9